,,PA_Meas_PMT16A,,PR_Meas_QMR101_102,,RH_Meas_QMH101,,SR_Meas_QMS101,,TA_Meas_QMH101,,GenWind,,GenWind,
time,status,PA,status,PR,status,RH,status,SR,status,TA,status,DirAvg,status,SpdAvg,
2010-09-27, 00:00:04,VALID,919.434,VALID,0,VALID,97.6636,VALID,0.107441,VALID,17.4986,VALID,16,VALID,1.09687,
2010-09-27, 00:01:04,VALID,919.469,VALID,0,VALID,97.6865,VALID,0,VALID,17.5194,VALID,15,VALID,1.08203,
2010-09-27, 00:02:04,VALID,919.455,VALID,0,VALID,97.6865,VALID,0,VALID,17.4805,VALID,2,VALID,1.95938,
2010-09-27, 00:03:04,VALID,919.449,VALID,0,VALID,97.6483,VALID,0,VALID,17.461,VALID,16,VALID,1.91172,
2010-09-27, 00:04:04,VALID,919.471,VALID,0,VALID,97.6483,VALID,0,VALID,17.461,VALID,21,VALID,0.967188,
2010-09-27, 00:05:04,VALID,919.461,VALID,0,VALID,97.6483,VALID,0,VALID,17.4805,VALID,21,VALID,1.31562,
2010-09-27, 00:06:04,VALID,919.443,VALID,0,VALID,97.6407,VALID,0,VALID,17.4415,VALID,10,VALID,1.20742,
2010-09-27, 00:07:04,VALID,919.42,VALID,0,VALID,97.6102,VALID,0.107441,VALID,17.4415,VALID,20,VALID,1.50625,
2010-09-27, 00:08:04,VALID,919.463,VALID,0,VALID,97.5873,VALID,0,VALID,17.422,VALID,352,VALID,1.33711,
2010-09-27, 00:09:04,VALID,919.414,VALID,0,VALID,97.6026,VALID,0,VALID,17.422,VALID,332,VALID,1.11602,
2010-09-27, 00:10:04,VALID,919.423,VALID,0,VALID,97.5645,VALID,0,VALID,17.4025,VALID,358,VALID,1.36797,
2010-09-27, 00:11:04,VALID,919.378,VALID,0,VALID,97.5569,VALID,0,VALID,17.3844,VALID,338,VALID,1.64727,
2010-09-27, 00:12:04,VALID,919.388,VALID,0,VALID,97.5569,VALID,0,VALID,17.383,VALID,358,VALID,1.0082,
2010-09-27, 00:13:04,VALID,919.361,VALID,0,VALID,97.534,VALID,0,VALID,17.3441,VALID,356,VALID,1.43516,
2010-09-27, 00:14:04,VALID,919.335,VALID,0,VALID,97.5111,VALID,0,VALID,17.3635,VALID,356,VALID,1.04141,
2010-09-27, 00:15:04,VALID,919.314,VALID,0,VALID,97.5111,VALID,0,VALID,17.383,VALID,356,VALID,1.40078,
2010-09-27, 00:16:04,VALID,919.307,VALID,0,VALID,97.4882,VALID,0,VALID,17.3441,VALID,350,VALID,2.01406,
2010-09-27, 00:17:04,VALID,919.272,VALID,0,VALID,97.4577,VALID,0,VALID,17.3441,VALID,350,VALID,1.11289,
2010-09-27, 00:18:04,VALID,919.223,VALID,0,VALID,97.4273,VALID,0.107441,VALID,17.3441,VALID,339,VALID,1.17734,
2010-09-27, 00:19:04,VALID,919.187,VALID,0,VALID,97.3815,VALID,0,VALID,17.3246,VALID,339,VALID,1.27109,
2010-09-27, 00:20:04,VALID,919.156,VALID,0,VALID,97.3434,VALID,0,VALID,17.3233,VALID,344,VALID,1.17813,
2010-09-27, 00:21:04,VALID,919.121,VALID,0,VALID,97.351,VALID,0,VALID,17.3441,VALID,11,VALID,1.04922,
2010-09-27, 00:22:04,VALID,919.111,VALID,0,VALID,97.3586,VALID,0,VALID,17.3246,VALID,20,VALID,1.15586,
2010-09-27, 00:23:04,VALID,919.078,VALID,0,VALID,97.3281,VALID,0,VALID,17.3246,VALID,21,VALID,1.21836,
2010-09-27, 00:24:04,VALID,919.035,VALID,0,VALID,97.2595,VALID,0.107441,VALID,17.3038,VALID,21,VALID,1.54023,
2010-09-27, 00:25:04,VALID,919.026,VALID,0,VALID,97.1833,VALID,0.107441,VALID,17.3051,VALID,10,VALID,1.65273,
2010-09-27, 00:26:04,VALID,919.017,VALID,0,VALID,97.229,VALID,0,VALID,17.3038,VALID,20,VALID,1.49258,
2010-09-27, 00:27:04,VALID,918.991,VALID,0,VALID,97.0994,VALID,0,VALID,17.3246,VALID,1,VALID,1.86641,
2010-09-27, 00:28:04,VALID,919.003,VALID,0,VALID,97.0156,VALID,0.107441,VALID,17.2843,VALID,8,VALID,1.43203,
2010-09-27, 00:29:04,VALID,918.994,VALID,0,VALID,97.069,VALID,0.107441,VALID,17.3233,VALID,24,VALID,0.998438,
2010-09-27, 00:30:04,VALID,918.982,VALID,0,VALID,97.008,VALID,0.107441,VALID,17.3246,VALID,4,VALID,1.20117,
2010-09-27, 00:31:04,VALID,918.975,VALID,0,VALID,97.0918,VALID,0.107441,VALID,17.3635,VALID,23,VALID,1.14258,
2010-09-27, 00:32:04,VALID,919.002,VALID,0,VALID,96.9851,VALID,0,VALID,17.3441,VALID,5,VALID,0.833203,
2010-09-27, 00:33:04,VALID,918.963,VALID,0,VALID,97.0156,VALID,0,VALID,17.3246,VALID,5,VALID,1.22656,
2010-09-27, 00:34:04,VALID,918.964,VALID,0,VALID,96.9851,VALID,0.107441,VALID,17.3246,VALID,5,VALID,0.732031,
2010-09-27, 00:35:04,VALID,918.933,VALID,0,VALID,97.0994,VALID,0.107441,VALID,17.3233,VALID,5,VALID,0.6,
2010-09-27, 00:36:04,VALID,918.904,VALID,0,VALID,97.0766,VALID,0.107441,VALID,17.383,VALID,5,VALID,0.709375,
2010-09-27, 00:37:04,VALID,918.901,VALID,0,VALID,97.0918,VALID,0.107441,VALID,17.3427,VALID,5,VALID,0.336719,
2010-09-27, 00:38:04,VALID,918.844,VALID,0,VALID,97.1299,VALID,0.107441,VALID,17.3635,VALID,5,VALID,0.892187,
2010-09-27, 00:39:04,VALID,918.838,VALID,0,VALID,97.0537,VALID,0.107441,VALID,17.3441,VALID,5,VALID,0.745313,
2010-09-27, 00:40:04,VALID,918.835,VALID,0,VALID,97.0385,VALID,0.107441,VALID,17.3233,VALID,5,VALID,0.427734,
2010-09-27, 00:41:04,VALID,918.801,VALID,0,VALID,97.0842,VALID,0.107441,VALID,17.3441,VALID,5,VALID,0.939062,
2010-09-27, 00:42:04,VALID,918.777,VALID,0,VALID,97.1223,VALID,0,VALID,17.3233,VALID,5,VALID,0.576563,
2010-09-27, 00:43:04,VALID,918.762,VALID,0,VALID,97.1986,VALID,0.107441,VALID,17.3817,VALID,5,VALID,0.472266,
2010-09-27, 00:44:04,VALID,918.769,VALID,0,VALID,97.1376,VALID,0.107441,VALID,17.383,VALID,5,VALID,0.692578,
2010-09-27, 00:45:04,VALID,918.736,VALID,0,VALID,97.1147,VALID,0.107441,VALID,17.3427,VALID,5,VALID,0.865234,
2010-09-27, 00:46:04,VALID,918.711,VALID,0,VALID,97.0537,VALID,0.107441,VALID,17.3427,VALID,5,VALID,0.576953,
2010-09-27, 00:47:04,VALID,918.665,VALID,0,VALID,97.008,VALID,0.107441,VALID,17.3635,VALID,5,VALID,0.880469,
2010-09-27, 00:48:04,VALID,918.638,VALID,0,VALID,96.8936,VALID,0,VALID,17.3441,VALID,5,VALID,1.28203,
2010-09-27, 00:49:04,VALID,918.597,VALID,0,VALID,96.8936,VALID,0.107441,VALID,17.3427,VALID,5,VALID,1.41797,
2010-09-27, 00:50:04,VALID,918.589,VALID,0,VALID,96.7793,VALID,0,VALID,17.3441,VALID,5,VALID,1.83438,
2010-09-27, 00:51:04,VALID,918.56,VALID,0,VALID,96.8784,VALID,0,VALID,17.3635,VALID,12,VALID,1.23281,
2010-09-27, 00:52:04,VALID,918.532,VALID,0,VALID,96.7488,VALID,0,VALID,17.3635,VALID,27,VALID,1.78711,
2010-09-27, 00:53:04,VALID,918.517,VALID,0,VALID,96.6954,VALID,0,VALID,17.383,VALID,11,VALID,1.65469,
2010-09-27, 00:54:04,VALID,918.482,VALID,0,VALID,96.6115,VALID,0.107441,VALID,17.3817,VALID,10,VALID,1.65469,
2010-09-27, 00:55:04,VALID,918.461,VALID,0,VALID,96.6192,VALID,0,VALID,17.422,VALID,10,VALID,0.967578,
2010-09-27, 00:56:04,VALID,918.426,VALID,0,VALID,96.6344,VALID,0,VALID,17.4025,VALID,10,VALID,0.903125,
2010-09-27, 00:57:04,VALID,918.441,VALID,0,VALID,96.7183,VALID,0,VALID,17.4025,VALID,10,VALID,0.801953,
2010-09-27, 00:58:04,VALID,918.395,VALID,0,VALID,96.6573,VALID,0,VALID,17.4025,VALID,10,VALID,1.10859,
2010-09-27, 00:59:04,VALID,918.373,VALID,0,VALID,96.6802,VALID,0,VALID,17.422,VALID,10,VALID,0.8375,
2010-09-27, 01:00:04,VALID,918.343,VALID,0,VALID,96.6192,VALID,0.107441,VALID,17.422,VALID,10,VALID,1.06797,
2010-09-27, 01:01:04,VALID,918.318,VALID,0,VALID,96.703,VALID,0,VALID,17.422,VALID,10,VALID,0.442578,
2010-09-27, 01:02:04,VALID,918.293,VALID,0,VALID,96.6802,VALID,0,VALID,17.422,VALID,10,VALID,0.789844,
2010-09-27, 01:03:04,VALID,918.297,VALID,0,VALID,96.7183,VALID,0,VALID,17.422,VALID,10,VALID,0.467578,
2010-09-27, 01:04:04,VALID,918.268,VALID,0,VALID,96.825,VALID,0,VALID,17.4415,VALID,10,VALID,0.392578,
2010-09-27, 01:05:04,VALID,918.215,VALID,0,VALID,96.7488,VALID,0,VALID,17.4025,VALID,10,VALID,0.920703,
2010-09-27, 01:06:04,VALID,918.227,VALID,0,VALID,96.7259,VALID,0,VALID,17.4038,VALID,10,VALID,0.771875,
2010-09-27, 01:07:04,VALID,918.195,VALID,0,VALID,96.7488,VALID,0,VALID,17.4025,VALID,10,VALID,0.705859,
2010-09-27, 01:08:04,VALID,918.185,VALID,0,VALID,96.7716,VALID,0.107441,VALID,17.422,VALID,10,VALID,0.7,
2010-09-27, 01:09:04,VALID,918.124,VALID,0,VALID,96.8098,VALID,0,VALID,17.422,VALID,10,VALID,0.505859,
2010-09-27, 01:10:04,VALID,918.13,VALID,0,VALID,96.7716,VALID,0,VALID,17.422,VALID,10,VALID,0.556641,
2010-09-27, 01:11:04,VALID,918.108,VALID,0,VALID,96.8174,VALID,0,VALID,17.4025,VALID,10,VALID,0.4,
2010-09-27, 01:12:04,VALID,918.068,VALID,0,VALID,96.8174,VALID,0,VALID,17.422,VALID,10,VALID,0.301562,
2010-09-27, 01:13:04,VALID,918.044,VALID,0,VALID,96.8707,VALID,0,VALID,17.4415,VALID,10,VALID,0.584766,
2010-09-27, 01:14:04,VALID,918.019,VALID,0,VALID,96.8555,VALID,0,VALID,17.422,VALID,10,VALID,0.516797,
2010-09-27, 01:15:04,VALID,918.029,VALID,0,VALID,96.8784,VALID,0,VALID,17.4415,VALID,10,VALID,0.809766,
2010-09-27, 01:16:04,VALID,917.97,VALID,0,VALID,96.9089,VALID,0,VALID,17.461,VALID,10,VALID,0.503125,
2010-09-27, 01:17:04,VALID,917.96,VALID,0,VALID,96.8021,VALID,0,VALID,17.461,VALID,6,VALID,0.85625,
2010-09-27, 01:18:04,VALID,917.924,VALID,0,VALID,96.8098,VALID,0,VALID,17.4623,VALID,6,VALID,0.702344,
2010-09-27, 01:19:04,VALID,917.93,VALID,0,VALID,96.7564,VALID,0,VALID,17.422,VALID,6,VALID,0.694922,
2010-09-27, 01:20:04,VALID,917.917,VALID,0,VALID,96.764,VALID,0,VALID,17.4415,VALID,6,VALID,0.765234,
2010-09-27, 01:21:04,VALID,917.922,VALID,0,VALID,96.8098,VALID,0,VALID,17.4415,VALID,6,VALID,0.566797,
2010-09-27, 01:22:04,VALID,917.924,VALID,0,VALID,96.8098,VALID,0.107441,VALID,17.4415,VALID,6,VALID,0.582812,
2010-09-27, 01:23:04,VALID,917.917,VALID,0,VALID,96.8098,VALID,0,VALID,17.422,VALID,6,VALID,0.502344,
2010-09-27, 01:24:04,VALID,917.916,VALID,0,VALID,96.825,VALID,0,VALID,17.4415,VALID,6,VALID,0.390234,
2010-09-27, 01:25:04,VALID,917.931,VALID,0,VALID,96.9012,VALID,0,VALID,17.4415,VALID,6,VALID,0.411719,
2010-09-27, 01:26:04,VALID,917.904,VALID,0,VALID,96.9241,VALID,0,VALID,17.4805,VALID,6,VALID,0.533203,
2010-09-27, 01:27:04,VALID,917.887,VALID,0,VALID,96.9241,VALID,0,VALID,17.4805,VALID,6,VALID,0.547266,
2010-09-27, 01:28:04,VALID,917.865,VALID,0,VALID,96.9012,VALID,0,VALID,17.4805,VALID,6,VALID,0.425391,
2010-09-27, 01:29:04,VALID,917.836,VALID,0,VALID,96.947,VALID,0,VALID,17.4805,VALID,6,VALID,0.324219,
2010-09-27, 01:30:04,VALID,917.808,VALID,0,VALID,97.0156,VALID,0,VALID,17.5208,VALID,6,VALID,0.150781,
2010-09-27, 01:31:04,VALID,917.772,VALID,0,VALID,97.0308,VALID,0,VALID,17.5194,VALID,6,VALID,0.353906,
2010-09-27, 01:32:04,VALID,917.735,VALID,0,VALID,97.0461,VALID,0,VALID,17.5194,VALID,6,VALID,0.352344,
2010-09-27, 01:33:04,VALID,917.735,VALID,0,VALID,97.0156,VALID,0,VALID,17.4805,VALID,6,VALID,0.302734,
2010-09-27, 01:34:04,VALID,917.712,VALID,0,VALID,97.0461,VALID,0,VALID,17.5,VALID,5,VALID,0.704297,
2010-09-27, 01:35:04,VALID,917.715,VALID,0,VALID,97.1299,VALID,0,VALID,17.5389,VALID,6,VALID,0.478906,
2010-09-27, 01:36:04,VALID,917.71,VALID,0,VALID,97.1528,VALID,0,VALID,17.5598,VALID,6,VALID,0.264844,
2010-09-27, 01:37:04,VALID,917.708,VALID,0,VALID,97.1147,VALID,0,VALID,17.5389,VALID,6,VALID,0.178906,
2010-09-27, 01:38:04,VALID,917.714,VALID,0,VALID,97.1071,VALID,0,VALID,17.5194,VALID,6,VALID,0,
2010-09-27, 01:39:04,VALID,917.711,VALID,0,VALID,97.1757,VALID,0,VALID,17.5584,VALID,6,VALID,0.00351562,
2010-09-27, 01:40:04,VALID,917.705,VALID,0,VALID,97.1986,VALID,0,VALID,17.5584,VALID,5,VALID,0,
2010-09-27, 01:41:04,VALID,917.698,VALID,0,VALID,97.2062,VALID,0,VALID,17.5389,VALID,6,VALID,0.00078125,
2010-09-27, 01:42:04,VALID,917.677,VALID,0,VALID,97.1604,VALID,0,VALID,17.5584,VALID,6,VALID,0.212109,
2010-09-27, 01:43:04,VALID,917.662,VALID,0,VALID,97.1299,VALID,0,VALID,17.5403,VALID,6,VALID,0.344531,
2010-09-27, 01:44:04,VALID,917.603,VALID,0,VALID,97.1299,VALID,0,VALID,17.5,VALID,6,VALID,0.424219,
2010-09-27, 01:45:04,VALID,917.617,VALID,0,VALID,97.1681,VALID,0,VALID,17.5,VALID,6,VALID,0.364062,
2010-09-27, 01:46:04,VALID,917.614,VALID,0,VALID,97.1833,VALID,0,VALID,17.5194,VALID,6,VALID,0.392969,
2010-09-27, 01:47:04,VALID,917.59,VALID,0,VALID,97.1757,VALID,0,VALID,17.5194,VALID,6,VALID,0.298047,
2010-09-27, 01:48:04,VALID,917.584,VALID,0,VALID,97.2367,VALID,0,VALID,17.5389,VALID,6,VALID,0.291016,
2010-09-27, 01:49:04,VALID,917.557,VALID,0,VALID,97.3129,VALID,0,VALID,17.5779,VALID,6,VALID,0.349609,
2010-09-27, 01:50:04,VALID,917.557,VALID,0,VALID,97.3053,VALID,0,VALID,17.5974,VALID,6,VALID,0.145313,
2010-09-27, 01:51:04,VALID,917.578,VALID,0,VALID,97.3129,VALID,0,VALID,17.6364,VALID,6,VALID,0.0164062,
2010-09-27, 01:52:04,VALID,917.589,VALID,0,VALID,97.2824,VALID,0,VALID,17.5974,VALID,6,VALID,0.321484,
2010-09-27, 01:53:04,VALID,917.542,VALID,0,VALID,97.2977,VALID,0,VALID,17.6169,VALID,6,VALID,0.232422,
2010-09-27, 01:54:04,VALID,917.58,VALID,0,VALID,97.2062,VALID,0,VALID,17.5974,VALID,6,VALID,0.138672,
2010-09-27, 01:55:04,VALID,917.546,VALID,0.2,VALID,97.2367,VALID,0,VALID,17.5584,VALID,5,VALID,0.127344,
2010-09-27, 01:56:04,VALID,917.544,VALID,0,VALID,97.29,VALID,0,VALID,17.6169,VALID,6,VALID,0,
2010-09-27, 01:57:04,VALID,917.527,VALID,0,VALID,97.2595,VALID,0,VALID,17.5974,VALID,6,VALID,0.212891,
2010-09-27, 01:58:04,VALID,917.509,VALID,0,VALID,97.2595,VALID,0,VALID,17.5766,VALID,6,VALID,0.152344,
2010-09-27, 01:59:04,VALID,917.51,VALID,0,VALID,97.2977,VALID,0,VALID,17.5974,VALID,6,VALID,0.0257812,
2010-09-27, 02:00:04,VALID,917.512,VALID,0,VALID,97.3205,VALID,0,VALID,17.5974,VALID,5,VALID,0,
2010-09-27, 02:01:04,VALID,917.512,VALID,0,VALID,97.3053,VALID,0,VALID,17.5974,VALID,6,VALID,0,
2010-09-27, 02:02:04,VALID,917.523,VALID,0,VALID,97.3358,VALID,0,VALID,17.6169,VALID,6,VALID,0,
2010-09-27, 02:03:04,VALID,917.515,VALID,0,VALID,97.3815,VALID,0,VALID,17.6364,VALID,6,VALID,0.0828125,
2010-09-27, 02:04:04,VALID,917.51,VALID,0,VALID,97.3815,VALID,0,VALID,17.6559,VALID,6,VALID,0.292188,
2010-09-27, 02:05:04,VALID,917.527,VALID,0,VALID,97.3663,VALID,0,VALID,17.6364,VALID,6,VALID,0.30625,
2010-09-27, 02:06:04,VALID,917.483,VALID,0,VALID,97.3891,VALID,0,VALID,17.6559,VALID,6,VALID,0.294922,
2010-09-27, 02:07:04,VALID,917.511,VALID,0,VALID,97.3891,VALID,0,VALID,17.6559,VALID,6,VALID,0.5375,
2010-09-27, 02:08:04,VALID,917.488,VALID,0,VALID,97.3968,VALID,0,VALID,17.6559,VALID,6,VALID,0.320313,
2010-09-27, 02:09:04,VALID,917.496,VALID,0,VALID,97.412,VALID,0,VALID,17.6559,VALID,6,VALID,0.166016,
2010-09-27, 02:10:04,VALID,917.475,VALID,0,VALID,97.4273,VALID,0,VALID,17.6754,VALID,6,VALID,0.181641,
2010-09-27, 02:11:04,VALID,917.476,VALID,0,VALID,97.4196,VALID,0,VALID,17.6559,VALID,6,VALID,0.305469,
2010-09-27, 02:12:04,VALID,917.472,VALID,0,VALID,97.4577,VALID,0,VALID,17.6754,VALID,6,VALID,0.227344,
2010-09-27, 02:13:04,VALID,917.459,VALID,0,VALID,97.4577,VALID,0,VALID,17.674,VALID,5,VALID,0.00664063,
2010-09-27, 02:14:04,VALID,917.424,VALID,0,VALID,97.4577,VALID,0,VALID,17.6754,VALID,6,VALID,0.176172,
2010-09-27, 02:15:04,VALID,917.428,VALID,0,VALID,97.4654,VALID,0,VALID,17.6948,VALID,5,VALID,0.0257812,
2010-09-27, 02:16:04,VALID,917.401,VALID,0,VALID,97.473,VALID,0,VALID,17.6948,VALID,6,VALID,0,
2010-09-27, 02:17:04,VALID,917.409,VALID,0,VALID,97.4959,VALID,0,VALID,17.7157,VALID,6,VALID,0.0734375,
2010-09-27, 02:18:04,VALID,917.441,VALID,0,VALID,97.4959,VALID,0,VALID,17.6754,VALID,6,VALID,0.391016,
2010-09-27, 02:19:04,VALID,917.442,VALID,0,VALID,97.473,VALID,0,VALID,17.6948,VALID,6,VALID,0.25625,
2010-09-27, 02:20:04,VALID,917.42,VALID,0,VALID,97.4882,VALID,0,VALID,17.6754,VALID,6,VALID,0.291797,
2010-09-27, 02:21:04,VALID,917.44,VALID,0,VALID,97.4882,VALID,0,VALID,17.6754,VALID,6,VALID,0.384766,
2010-09-27, 02:22:04,VALID,917.445,VALID,0,VALID,97.5111,VALID,0,VALID,17.6364,VALID,6,VALID,0.312891,
2010-09-27, 02:23:04,VALID,917.459,VALID,0,VALID,97.4959,VALID,0,VALID,17.6754,VALID,6,VALID,0.0503906,
2010-09-27, 02:24:04,VALID,917.444,VALID,0,VALID,97.5035,VALID,0,VALID,17.6754,VALID,5,VALID,0.0234375,
2010-09-27, 02:25:04,VALID,917.424,VALID,0,VALID,97.5035,VALID,0,VALID,17.6754,VALID,6,VALID,0.360547,
2010-09-27, 02:26:04,VALID,917.404,VALID,0,VALID,97.5035,VALID,0,VALID,17.6169,VALID,6,VALID,0.525781,
2010-09-27, 02:27:04,VALID,917.373,VALID,0,VALID,97.4806,VALID,0,VALID,17.6364,VALID,6,VALID,0.30625,
2010-09-27, 02:28:04,VALID,917.392,VALID,0,VALID,97.4806,VALID,0,VALID,17.6169,VALID,6,VALID,0.536328,
2010-09-27, 02:29:04,VALID,917.374,VALID,0,VALID,97.4882,VALID,0,VALID,17.635,VALID,6,VALID,0.442578,
2010-09-27, 02:30:04,VALID,917.401,VALID,0,VALID,97.5035,VALID,0,VALID,17.6754,VALID,6,VALID,0.336328,
2010-09-27, 02:31:04,VALID,917.374,VALID,0,VALID,97.473,VALID,0,VALID,17.6559,VALID,6,VALID,0.4375,
2010-09-27, 02:32:04,VALID,917.399,VALID,0,VALID,97.4577,VALID,0,VALID,17.6559,VALID,6,VALID,0.414453,
2010-09-27, 02:33:04,VALID,917.424,VALID,0,VALID,97.4654,VALID,0,VALID,17.6364,VALID,6,VALID,0.442578,
2010-09-27, 02:34:04,VALID,917.438,VALID,0,VALID,97.4577,VALID,0,VALID,17.6169,VALID,6,VALID,0.375,
2010-09-27, 02:35:04,VALID,917.423,VALID,0,VALID,97.4501,VALID,0,VALID,17.6364,VALID,6,VALID,0.584375,
2010-09-27, 02:36:04,VALID,917.417,VALID,0,VALID,97.4501,VALID,0,VALID,17.6364,VALID,6,VALID,0.764453,
2010-09-27, 02:37:04,VALID,917.413,VALID,0,VALID,97.4273,VALID,0,VALID,17.6364,VALID,6,VALID,0.830078,
2010-09-27, 02:38:04,VALID,917.376,VALID,0,VALID,97.4349,VALID,0,VALID,17.6169,VALID,6,VALID,1.01406,
2010-09-27, 02:39:04,VALID,917.372,VALID,0,VALID,97.4349,VALID,0,VALID,17.5974,VALID,6,VALID,0.808984,
2010-09-27, 02:40:04,VALID,917.347,VALID,0,VALID,97.4196,VALID,0,VALID,17.5779,VALID,6,VALID,0.658984,
2010-09-27, 02:41:04,VALID,917.35,VALID,0,VALID,97.4273,VALID,0,VALID,17.5584,VALID,5,VALID,0.717578,
2010-09-27, 02:42:04,VALID,917.38,VALID,0,VALID,97.4349,VALID,0,VALID,17.5987,VALID,5,VALID,0.40625,
2010-09-27, 02:43:04,VALID,917.345,VALID,0,VALID,97.4654,VALID,0,VALID,17.6182,VALID,5,VALID,0.45,
2010-09-27, 02:44:04,VALID,917.325,VALID,0,VALID,97.4501,VALID,0,VALID,17.6182,VALID,5,VALID,0.45625,
2010-09-27, 02:45:04,VALID,917.324,VALID,0,VALID,97.4501,VALID,0,VALID,17.5779,VALID,5,VALID,0.541016,
2010-09-27, 02:46:04,VALID,917.347,VALID,0,VALID,97.4654,VALID,0,VALID,17.6572,VALID,5,VALID,0.199219,
2010-09-27, 02:47:04,VALID,917.318,VALID,0,VALID,97.4654,VALID,0,VALID,17.6572,VALID,5,VALID,0.160938,
2010-09-27, 02:48:04,VALID,917.333,VALID,0,VALID,97.4882,VALID,0,VALID,17.6364,VALID,5,VALID,0.00859375,
2010-09-27, 02:49:04,VALID,917.348,VALID,0,VALID,97.4882,VALID,0,VALID,17.6767,VALID,5,VALID,0.377344,
2010-09-27, 02:50:04,VALID,917.363,VALID,0,VALID,97.4882,VALID,0,VALID,17.6364,VALID,5,VALID,0.720312,
2010-09-27, 02:51:04,VALID,917.411,VALID,0,VALID,97.4806,VALID,0,VALID,17.6169,VALID,5,VALID,1.00234,
2010-09-27, 02:52:04,VALID,917.405,VALID,0,VALID,97.4882,VALID,0,VALID,17.6169,VALID,5,VALID,0.732813,
2010-09-27, 02:53:04,VALID,917.417,VALID,0,VALID,97.4959,VALID,0,VALID,17.6182,VALID,5,VALID,0.710938,
2010-09-27, 02:54:04,VALID,917.435,VALID,0,VALID,97.4882,VALID,0,VALID,17.6377,VALID,5,VALID,0.315234,
2010-09-27, 02:55:04,VALID,917.435,VALID,0,VALID,97.5111,VALID,0,VALID,17.6377,VALID,5,VALID,0.567578,
2010-09-27, 02:56:04,VALID,917.401,VALID,0,VALID,97.5264,VALID,0,VALID,17.5987,VALID,5,VALID,0.726563,
2010-09-27, 02:57:04,VALID,917.402,VALID,0,VALID,97.5264,VALID,0,VALID,17.6169,VALID,5,VALID,0.0898438,
2010-09-27, 02:58:04,VALID,917.37,VALID,0,VALID,97.5492,VALID,0.107441,VALID,17.6364,VALID,5,VALID,0,
2010-09-27, 02:59:04,VALID,917.313,VALID,0,VALID,97.5416,VALID,0.107441,VALID,17.635,VALID,5,VALID,0.3875,
2010-09-27, 03:00:04,VALID,917.301,VALID,0,VALID,97.5416,VALID,0,VALID,17.6559,VALID,5,VALID,0,
2010-09-27, 03:01:04,VALID,917.271,VALID,0,VALID,97.5569,VALID,0,VALID,17.6364,VALID,5,VALID,0,
2010-09-27, 03:02:04,VALID,917.214,VALID,0,VALID,97.5416,VALID,0,VALID,17.6559,VALID,5,VALID,0.146484,
2010-09-27, 03:03:04,VALID,917.243,VALID,0,VALID,97.5645,VALID,0,VALID,17.6364,VALID,5,VALID,0,
2010-09-27, 03:04:04,VALID,917.188,VALID,0,VALID,97.5797,VALID,0,VALID,17.6559,VALID,5,VALID,0,
2010-09-27, 03:05:04,VALID,917.13,VALID,0,VALID,97.5721,VALID,0,VALID,17.6754,VALID,5,VALID,0.0292969,
2010-09-27, 03:06:04,VALID,917.124,VALID,0,VALID,97.5721,VALID,0,VALID,17.6559,VALID,5,VALID,0.412109,
2010-09-27, 03:07:04,VALID,917.09,VALID,0,VALID,97.5645,VALID,0,VALID,17.6364,VALID,5,VALID,0.225,
2010-09-27, 03:08:04,VALID,917.103,VALID,0,VALID,97.5873,VALID,0,VALID,17.6364,VALID,5,VALID,0.166016,
2010-09-27, 03:09:04,VALID,917.102,VALID,0,VALID,97.5797,VALID,0,VALID,17.6364,VALID,5,VALID,0,
2010-09-27, 03:10:04,VALID,917.045,VALID,0,VALID,97.5721,VALID,0,VALID,17.6364,VALID,5,VALID,0,
2010-09-27, 03:11:04,VALID,917.039,VALID,0,VALID,97.6026,VALID,0,VALID,17.6364,VALID,5,VALID,0,
2010-09-27, 03:12:04,VALID,917.055,VALID,0,VALID,97.5569,VALID,0,VALID,17.6559,VALID,5,VALID,0,
2010-09-27, 03:13:04,VALID,917.026,VALID,0,VALID,97.6102,VALID,0,VALID,17.6767,VALID,5,VALID,0,
2010-09-27, 03:14:04,VALID,917.011,VALID,0,VALID,97.5873,VALID,0,VALID,17.6559,VALID,5,VALID,0,
2010-09-27, 03:15:04,VALID,916.994,VALID,0,VALID,97.5569,VALID,0,VALID,17.6364,VALID,5,VALID,0,
2010-09-27, 03:16:04,VALID,916.989,VALID,0,VALID,97.5645,VALID,0,VALID,17.6169,VALID,5,VALID,0,
2010-09-27, 03:17:04,VALID,916.997,VALID,0,VALID,97.5721,VALID,0,VALID,17.6364,VALID,5,VALID,0.185937,
2010-09-27, 03:18:04,VALID,916.976,VALID,0,VALID,97.5873,VALID,0,VALID,17.6364,VALID,5,VALID,0.180469,
2010-09-27, 03:19:04,VALID,917,VALID,0,VALID,97.5645,VALID,0,VALID,17.6169,VALID,5,VALID,0.368359,
2010-09-27, 03:20:04,VALID,916.991,VALID,0,VALID,97.5721,VALID,0,VALID,17.5779,VALID,5,VALID,0.651563,
2010-09-27, 03:21:04,VALID,916.988,VALID,0,VALID,97.5645,VALID,0,VALID,17.5779,VALID,5,VALID,0.432813,
2010-09-27, 03:22:04,VALID,916.989,VALID,0,VALID,97.5569,VALID,0.107441,VALID,17.5987,VALID,5,VALID,0.335547,
2010-09-27, 03:23:04,VALID,916.97,VALID,0,VALID,97.5645,VALID,0,VALID,17.5974,VALID,5,VALID,0.261719,
2010-09-27, 03:24:04,VALID,916.961,VALID,0,VALID,97.5569,VALID,0,VALID,17.5974,VALID,5,VALID,0.229297,
2010-09-27, 03:25:04,VALID,916.953,VALID,0,VALID,97.5569,VALID,0,VALID,17.5766,VALID,5,VALID,0,
2010-09-27, 03:26:04,VALID,916.981,VALID,0,VALID,97.5492,VALID,0,VALID,17.5974,VALID,5,VALID,0,
2010-09-27, 03:27:04,VALID,916.989,VALID,0,VALID,97.5721,VALID,0,VALID,17.5974,VALID,5,VALID,0,
2010-09-27, 03:28:04,VALID,916.983,VALID,0,VALID,97.5569,VALID,0,VALID,17.5974,VALID,5,VALID,0.0484375,
2010-09-27, 03:29:04,VALID,916.934,VALID,0,VALID,97.534,VALID,0,VALID,17.5779,VALID,5,VALID,0.348047,
2010-09-27, 03:30:04,VALID,916.95,VALID,0,VALID,97.5492,VALID,0,VALID,17.5779,VALID,5,VALID,0.364062,
2010-09-27, 03:31:04,VALID,916.95,VALID,0,VALID,97.5492,VALID,0,VALID,17.5584,VALID,5,VALID,0.315625,
2010-09-27, 03:32:04,VALID,916.922,VALID,0,VALID,97.5569,VALID,0,VALID,17.5779,VALID,5,VALID,0.158203,
2010-09-27, 03:33:04,VALID,916.917,VALID,0,VALID,97.5492,VALID,0,VALID,17.5779,VALID,5,VALID,0.334766,
2010-09-27, 03:34:04,VALID,916.929,VALID,0,VALID,97.5416,VALID,0.107441,VALID,17.5571,VALID,5,VALID,0.169141,
2010-09-27, 03:35:04,VALID,916.926,VALID,0,VALID,97.534,VALID,0,VALID,17.5779,VALID,5,VALID,0.00898437,
2010-09-27, 03:36:04,VALID,916.955,VALID,0,VALID,97.5492,VALID,0,VALID,17.5779,VALID,5,VALID,0.475391,
2010-09-27, 03:37:04,VALID,916.979,VALID,0,VALID,97.5416,VALID,0,VALID,17.5974,VALID,5,VALID,0.399609,
2010-09-27, 03:38:04,VALID,916.981,VALID,0,VALID,97.534,VALID,0,VALID,17.5779,VALID,5,VALID,0.121875,
2010-09-27, 03:39:04,VALID,916.996,VALID,0,VALID,97.5569,VALID,0,VALID,17.5389,VALID,5,VALID,0,
2010-09-27, 03:40:04,VALID,917.019,VALID,0,VALID,97.4882,VALID,0,VALID,17.4805,VALID,5,VALID,0.380469,
2010-09-27, 03:41:04,VALID,916.988,VALID,0,VALID,97.4577,VALID,0,VALID,17.5,VALID,5,VALID,0.975781,
2010-09-27, 03:42:04,VALID,917.03,VALID,0,VALID,97.3281,VALID,0,VALID,17.4818,VALID,5,VALID,1.34844,
2010-09-27, 03:43:04,VALID,916.983,VALID,0,VALID,97.1147,VALID,0,VALID,17.5598,VALID,5,VALID,0.679688,
2010-09-27, 03:44:04,VALID,916.972,VALID,0,VALID,96.8098,VALID,0,VALID,17.5584,VALID,5,VALID,0.31875,
2010-09-27, 03:45:04,VALID,916.943,VALID,0,VALID,96.8784,VALID,0,VALID,17.6169,VALID,5,VALID,0,
2010-09-27, 03:46:04,VALID,916.921,VALID,0,VALID,96.9012,VALID,0,VALID,17.6767,VALID,5,VALID,0.157031,
2010-09-27, 03:47:04,VALID,916.934,VALID,0,VALID,96.9775,VALID,0,VALID,17.6754,VALID,5,VALID,0.0816406,
2010-09-27, 03:48:04,VALID,916.914,VALID,0,VALID,97.0308,VALID,0,VALID,17.7352,VALID,5,VALID,0.157813,